Date,TemperatureHighF,TemperatureAvgF,TemperatureLowF,DewpointHighF,DewpointAvgF,DewpointLowF,HumidityHigh,HumidityAvg,HumidityLow,PressureMaxIn,PressureMinIn,WindSpeedMaxMPH,WindSpeedAvgMPH,GustSpeedMaxMPH,PrecipitationSumIn
2013-1-1,42,35,31,34,29,26,85,79,56,30.45,30.30,7,2,21,0.00
2013-1-2,47,40,37,30,26,23,59,56,50,30.31,30.15,9,4,22,0.00
2013-1-3,42,38,34,35,26,22,80,61,51,30.19,30.07,9,4,22,0.02
2013-1-4,49,43,40,43,38,35,85,82,77,30.33,30.14,5,1,11,0.29
2013-1-5,45,43,37,37,34,32,82,71,64,30.19,30.12,8,2,21,0.04
2013-1-6,49,41,34,42,36,29,85,81,74,30.21,30.00,3,0,9,0.18
2013-1-7,50,47,42,47,43,38,87,86,85,30.21,29.94,14,2,20,1.12
2013-1-8,54,49,42,50,44,38,87,84,78,30.20,29.84,12,3,23,0.33
2013-1-9,50,40,32,44,36,28,86,83,78,29.99,29.75,9,1,21,1.32
2013-1-10,43,35,29,38,30,25,87,85,82,30.13,29.99,1,0,5,0.02
2013-1-11,40,30,22,34,24,18,86,80,62,30.33,30.13,3,0,8,0.00
2013-1-12,40,28,21,33,22,17,85,79,64,30.44,30.32,3,0,9,0.00
2013-1-13,40,27,18,32,22,14,85,79,66,30.50,30.41,2,0,7,0.02
2013-1-14,35,32,27,30,28,22,85,83,81,30.56,30.48,3,1,7,0.04
2013-1-15,44,35,26,39,30,22,87,83,77,30.66,30.56,3,0,7,0.00
2013-1-16,44,31,22,37,26,18,86,82,74,30.65,30.45,3,0,7,0.00
2013-1-17,51,35,28,39,29,23,86,80,64,30.46,30.27,6,1,10,0.02
2013-1-18,56,34,23,44,28,19,86,79,63,30.28,30.21,1,0,3,0.00
2013-1-19,54,35,26,40,28,22,85,78,56,30.33,30.24,2,0,7,0.00
2013-1-20,52,33,22,40,27,17,85,78,59,30.35,30.19,5,0,14,0.02
2013-1-21,53,37,27,37,28,23,84,72,52,30.24,30.09,5,1,14,0.00
2013-1-22,51,41,34,31,28,25,72,61,46,30.12,29.90,6,2,12,0.00
2013-1-23,44,40,38,38,33,29,84,76,59,30.19,29.86,7,1,13,0.33
2013-1-24,47,41,34,41,36,30,86,82,74,30.22,30.06,6,1,12,0.20
2013-1-25,49,42,33,45,38,29,86,85,84,30.08,29.94,5,0,7,0.18
2013-1-26,50,41,36,44,37,32,87,84,76,30.09,29.91,6,0,14,0.33
2013-1-27,43,40,35,39,36,31,87,86,85,30.12,30.03,2,0,7,0.44
2013-1-28,45,43,41,41,39,37,87,86,86,30.22,30.10,7,2,23,0.82
2013-1-29,48,46,44,44,42,40,87,86,86,30.45,30.22,5,2,16,0.15
2013-1-30,50,48,46,46,44,42,87,87,86,30.45,30.41,5,1,14,0.77
2013-1-31,51,45,17,48,41,14,88,87,86,30.46,30.33,1,0,4,0.15
2013-2-1,53,45,38,46,41,34,87,84,75,30.38,30.27,5,1,14,0.00
2013-2-2,62,46,34,46,38,30,86,75,52,30.32,30.22,7,2,13,0.00
2013-2-3,47,43,35,43,39,30,86,85,84,30.31,30.24,1,0,6,0.02
2013-2-4,53,46,42,45,41,38,86,82,73,30.25,29.93,2,0,7,0.00
2013-2-5,57,46,42,48,41,38,86,81,66,30.00,29.87,5,1,14,0.35
2013-2-6,52,45,41,45,40,36,86,83,75,30.07,29.78,6,1,15,0.38
2013-2-7,52,40,29,43,34,25,85,79,62,30.19,29.87,5,1,17,0.09
2013-2-8,51,37,25,41,31,21,87,78,62,30.31,30.20,3,0,11,0.02
2013-2-9,51,44,38,44,38,33,85,82,76,30.32,30.25,1,0,5,0.00
2013-2-10,48,44,41,42,38,36,86,80,71,30.37,30.32,2,0,6,0.00
2013-2-11,50,45,41,45,40,36,85,84,83,30.39,30.34,1,0,6,0.02
2013-2-12,53,48,46,48,44,41,86,85,83,30.47,30.38,6,1,13,0.26
2013-2-13,52,45,35,46,40,31,87,83,74,30.53,30.42,3,1,11,0.16
2013-2-14,49,44,39,45,40,35,86,85,84,30.56,30.52,1,0,5,0.00
2013-2-15,64,48,38,51,41,33,87,79,62,30.52,30.17,6,1,10,0.02
2013-2-16,50,45,37,45,40,33,86,83,75,30.29,30.24,8,1,21,0.15
2013-2-17,52,40,33,46,35,29,86,81,72,30.31,30.12,5,0,9,0.13
2013-2-18,50,40,32,42,34,28,86,82,72,30.11,29.73,2,0,10,0.09
2013-2-19,54,43,34,42,37,29,85,79,61,30.02,29.71,5,1,11,0.02
2013-2-20,48,40,31,43,35,27,86,83,77,30.07,29.98,2,0,12,0.18
2013-2-21,48,42,39,42,38,35,86,85,81,30.15,30.06,6,1,20,0.40
2013-2-22,51,43,37,46,38,32,86,84,79,30.15,29.83,13,2,21,1.25
2013-2-23,50,42,36,42,36,31,85,79,66,30.43,30.04,9,2,18,0.18
2013-2-24,52,44,38,43,37,34,86,77,65,30.43,29.99,3,0,12,0.09
2013-2-25,49,42,33,42,36,28,85,81,71,30.38,29.96,12,2,20,0.42
2013-2-26,55,42,33,43,35,29,86,79,61,30.38,30.22,3,1,12,0.04
2013-2-27,54,47,41,47,41,36,86,81,73,30.30,30.20,6,1,10,0.11
2013-2-28,54,49,46,50,45,41,86,86,84,30.38,30.17,3,0,14,1.22
2013-3-1,61,52,47,54,47,42,87,84,72,30.42,30.31,5,0,11,0.09
2013-3-2,57,47,37,52,42,33,87,85,78,30.32,30.16,5,0,17,0.26
2013-3-3,54,40,30,44,34,26,87,79,61,30.34,30.27,5,1,12,0.02
2013-3-4,59,40,27,38,30,23,86,68,38,30.30,29.91,9,2,16,0.02
2013-3-5,47,43,32,42,37,27,84,78,60,29.90,29.67,3,1,13,0.15
2013-3-6,47,43,40,42,38,36,85,84,83,29.92,29.58,5,0,9,0.53
2013-3-7,55,44,31,47,38,27,86,81,67,30.07,29.92,2,0,12,0.04
2013-3-8,60,42,28,45,34,24,86,76,54,30.24,30.05,5,1,10,0.00
2013-3-9,57,39,29,45,33,24,86,78,58,30.53,30.24,3,0,9,0.00
2013-3-10,47,40,30,42,36,25,85,84,82,30.53,30.42,1,0,5,0.13
2013-3-11,53,48,44,48,43,40,86,85,83,30.45,30.22,2,0,5,0.33
2013-3-12,60,52,46,52,46,42,87,81,71,30.23,30.14,5,1,15,0.02
2013-3-13,55,50,47,50,46,43,86,84,81,30.22,30.10,2,0,6,0.09
2013-3-14,54,49,47,47,44,43,86,83,75,30.19,30.07,6,1,14,0.11
2013-3-15,56,50,47,51,45,43,86,85,82,30.24,30.18,2,0,7,0.02
2013-3-16,51,45,39,45,41,35,86,84,79,30.19,30.03,9,2,18,0.46
2013-3-17,50,41,36,42,35,32,85,80,65,30.28,30.10,8,1,18,0.24
2013-3-18,55,43,32,44,36,27,85,77,58,30.27,30.19,5,1,13,0.09
2013-3-19,49,43,32,42,36,27,85,77,61,30.21,29.60,6,2,21,0.54
2013-3-20,51,46,36,47,41,32,86,83,77,30.13,29.45,9,3,22,0.82
2013-3-21,51,40,35,44,35,30,85,81,71,30.31,30.12,7,1,18,0.42
2013-3-22,51,39,31,42,32,26,86,79,58,30.40,30.30,7,1,13,0.20
2013-3-23,56,40,31,39,31,26,85,73,48,30.42,30.29,2,0,7,0.00
2013-3-24,61,45,32,41,34,27,84,68,46,30.31,30.08,3,1,13,0.02
2013-3-25,66,50,37,44,37,31,80,61,42,30.11,29.93,5,1,12,0.00
2013-3-26,59,50,43,47,42,35,81,74,64,30.02,29.97,3,0,8,0.02
2013-3-27,63,52,47,51,45,42,85,76,59,30.00,29.91,3,1,8,0.13
2013-3-28,64,52,46,51,45,41,85,77,59,30.15,29.99,3,0,9,0.02
2013-3-29,68,54,42,54,45,36,85,74,48,30.23,30.14,3,0,8,0.00
2013-3-30,79,56,35,53,43,30,86,65,40,30.22,29.98,6,1,16,0.00
2013-3-31,72,54,38,55,45,34,85,72,50,30.02,29.93,6,1,12,0.00
2013-4-1,62,54,50,52,47,44,82,77,67,30.19,30.01,6,1,12,0.00
2013-4-2,58,51,48,50,46,42,85,81,73,30.22,30.18,3,0,12,0.07
2013-4-3,66,55,42,52,46,37,85,74,56,30.22,29.90,2,0,10,0.00
2013-4-4,63,55,51,53,49,46,84,81,69,29.91,29.64,8,1,20,0.29
2013-4-5,59,52,49,52,47,44,86,82,74,29.92,29.75,6,2,20,0.96
2013-4-6,61,51,44,51,44,39,85,77,60,29.96,29.68,8,2,18,0.80
2013-4-7,54,46,42,48,41,37,86,83,76,29.96,29.48,8,2,19,0.60
2013-4-8,56,47,39,46,41,34,86,79,64,30.32,29.95,7,1,14,0.02
2013-4-9,59,47,34,47,40,30,86,77,64,30.34,30.22,3,0,7,0.00
2013-4-10,54,50,46,48,44,40,86,81,73,30.34,30.05,8,2,22,0.38
2013-4-11,60,48,35,48,40,29,85,74,53,30.37,30.22,5,1,13,0.04
2013-4-12,50,43,33,42,37,28,85,80,69,30.23,29.81,6,0,17,0.13
2013-4-13,53,44,36,45,38,31,84,78,69,30.08,29.91,9,2,21,0.35
2013-4-14,56,44,34,45,37,30,86,76,61,30.08,29.96,7,1,15,0.07
2013-4-15,59,47,35,44,38,30,85,71,51,30.20,29.98,7,1,14,0.04
2013-4-16,64,45,31,48,37,26,86,74,48,30.42,30.19,7,1,14,0.04
2013-4-17,61,47,33,49,39,28,85,74,56,30.49,30.42,6,1,14,0.00
2013-4-18,57,49,43,47,43,38,84,79,69,30.49,30.30,2,0,6,0.16
2013-4-19,53,50,48,48,46,44,86,84,83,30.32,30.12,7,1,13,0.75
2013-4-20,60,50,46,50,44,40,86,80,68,30.35,30.30,5,1,12,0.07
2013-4-21,57,49,44,48,42,37,85,78,65,30.36,30.27,6,1,11,0.02
2013-4-22,68,50,31,45,35,27,86,62,33,30.46,30.35,6,1,15,0.00
2013-4-23,70,48,29,46,35,24,84,63,34,30.42,30.20,7,1,14,0.00
2013-4-24,78,54,32,48,37,27,85,57,28,30.29,30.07,7,1,14,0.00
2013-4-25,72,53,35,53,43,30,83,69,49,30.21,30.06,7,1,14,0.00
2013-4-26,76,57,41,52,42,32,81,62,31,30.27,30.20,6,1,13,0.00
2013-4-27,66,50,35,51,42,29,82,73,55,30.29,30.24,7,1,15,0.02
2013-4-28,63,54,49,52,46,42,84,75,58,30.27,30.05,7,2,18,0.18
2013-4-29,60,50,42,47,40,33,84,68,47,30.25,30.05,8,3,21,0.20
2013-4-30,60,48,34,44,36,27,83,65,43,30.50,30.25,8,2,16,0.09
2013-5-1,71,50,28,45,36,23,84,62,30,30.54,30.46,6,1,14,0.00
2013-5-2,80,56,34,49,40,29,84,58,31,30.50,30.31,7,1,15,0.00
2013-5-3,81,58,36,53,43,30,83,60,37,30.36,30.18,5,1,12,0.00
2013-5-4,86,64,41,54,44,36,84,53,28,30.19,29.93,5,1,13,0.00
2013-5-5,90,68,43,53,44,36,81,48,22,29.94,29.70,6,1,14,0.00
2013-5-6,70,58,45,55,48,39,81,70,57,29.91,29.77,5,1,12,0.00
2013-5-7,62,56,52,51,48,45,79,73,65,30.05,29.91,6,1,12,0.00
2013-5-8,69,57,52,53,48,45,78,71,57,30.18,30.05,6,1,12,0.00
2013-5-9,76,59,46,57,48,40,79,69,50,30.23,30.13,5,1,12,0.00
2013-5-10,72,56,43,57,47,37,83,74,55,30.24,30.16,6,1,10,0.00
2013-5-11,77,61,49,58,50,44,82,69,51,30.23,30.05,5,1,9,0.00
2013-5-12,71,61,56,58,53,49,82,76,63,30.12,30.05,5,1,11,0.00
2013-5-13,66,56,41,56,49,35,85,77,65,30.23,30.01,5,1,20,0.22
2013-5-14,68,54,40,50,43,35,85,68,46,30.25,30.13,7,1,11,0.00
2013-5-15,59,51,39,52,44,34,84,79,70,30.15,30.01,5,0,6,0.13
2013-5-16,67,56,47,57,50,42,85,80,67,30.02,29.92,3,0,11,0.27
2013-5-17,69,54,43,55,46,39,86,76,60,30.10,29.99,8,1,16,0.04
2013-5-18,62,55,49,52,48,44,84,77,69,30.30,30.09,2,0,5,0.07
2013-5-19,65,56,50,50,47,43,83,71,56,30.44,30.29,6,2,16,0.02
2013-5-20,68,56,44,52,46,38,81,69,54,30.40,29.96,6,1,13,0.02
2013-5-21,56,49,43,50,43,38,83,78,70,29.98,29.85,6,1,16,0.46
2013-5-22,55,49,42,49,43,36,85,82,75,29.95,29.89,2,0,9,0.35
2013-5-23,53,48,44,49,44,39,86,84,83,29.97,29.93,1,0,6,1.09
2013-5-24,62,52,46,53,46,42,86,80,67,30.09,29.96,3,0,10,0.20
2013-5-25,59,52,46,51,46,42,85,81,72,30.09,29.96,3,0,6,0.09
2013-5-26,67,56,48,55,49,42,86,77,62,30.01,29.94,7,1,16,0.04
2013-5-27,62,54,47,57,49,41,85,83,80,29.98,29.69,7,1,14,0.51
2013-5-28,63,55,49,55,49,44,86,80,68,29.92,29.76,5,1,12,0.26
2013-5-29,62,54,48,55,48,42,86,80,69,30.05,29.64,6,1,17,0.62
2013-5-30,66,55,45,53,47,41,86,75,59,30.27,30.03,6,1,13,0.07
2013-5-31,69,56,42,52,46,37,85,69,52,30.34,30.25,5,1,9,0.00
2013-6-1,72,58,44,56,47,39,84,70,52,30.26,30.07,5,1,12,0.00
2013-6-2,72,60,54,57,50,46,83,72,57,30.14,30.07,6,1,13,0.02
2013-6-3,70,59,47,54,48,41,78,69,55,30.15,30.10,6,1,14,0.00
2013-6-4,84,62,42,60,49,37,85,65,44,30.13,30.03,6,1,14,0.00
2013-6-5,79,60,44,62,51,39,84,73,56,30.13,30.06,7,1,14,0.00
2013-6-6,79,61,48,62,51,42,82,70,50,30.09,30.05,7,1,15,0.00
2013-6-7,70,56,44,56,48,39,84,76,59,30.21,30.08,5,1,11,0.00
2013-6-8,72,59,42,54,47,37,85,67,51,30.22,30.13,6,2,14,0.00
2013-6-9,72,60,49,53,48,41,77,64,50,30.15,30.07,7,2,19,0.00
2013-6-10,71,56,43,52,45,37,84,67,49,30.08,29.96,7,1,16,0.00
2013-6-11,71,58,49,54,47,41,80,68,52,30.15,30.00,6,1,15,0.04
2013-6-12,67,56,47,54,47,40,83,73,59,30.18,30.14,7,1,14,0.15
2013-6-13,69,58,51,58,50,46,84,73,55,30.29,30.16,7,1,16,0.24
2013-6-14,69,58,47,54,49,41,82,72,59,30.29,30.01,2,0,6,0.00
2013-6-15,78,60,41,60,50,36,85,69,50,30.04,29.92,6,1,14,0.00
2013-6-16,70,62,56,54,51,47,77,69,57,30.12,30.04,5,1,11,0.00
2013-6-17,74,62,55,58,52,49,82,71,56,30.12,29.97,5,1,14,0.00
2013-6-18,73,60,47,55,49,40,85,68,50,29.99,29.93,5,1,13,0.00
2013-6-19,72,57,42,55,47,37,84,70,52,30.07,29.96,6,1,15,0.04
2013-6-20,68,60,50,56,50,45,84,70,59,30.14,30.04,6,1,14,0.00
2013-6-21,72,61,52,59,51,45,82,72,56,30.19,30.13,5,1,12,0.07
2013-6-22,79,63,44,59,52,39,85,67,49,30.13,29.86,3,1,9,0.00
2013-6-23,71,62,58,61,56,50,84,80,70,29.87,29.61,2,0,5,0.67
2013-6-24,69,60,54,59,54,49,85,80,68,29.70,29.61,3,0,10,0.15
2013-6-25,73,62,56,60,55,51,85,77,63,29.83,29.65,3,1,14,0.31
2013-6-26,71,62,57,61,56,51,85,79,68,30.04,29.83,2,0,9,0.16
2013-6-27,69,63,60,63,58,54,86,84,80,30.18,30.00,2,0,5,0.26
2013-6-28,84,68,57,69,60,52,86,74,58,30.16,30.07,5,1,13,0.00
2013-6-29,84,69,57,65,58,51,85,69,50,30.12,30.00,5,1,9,0.00
2013-6-30,91,71,53,70,59,48,85,68,50,30.01,29.90,6,1,12,0.00
2013-7-1,81,69,60,66,59,53,83,72,59,30.08,29.94,6,1,14,0.00
2013-7-2,78,67,58,62,56,51,81,69,54,30.14,30.07,7,2,14,0.00
2013-7-3,76,63,50,58,52,45,84,68,52,30.19,30.12,6,2,15,0.00
2013-7-4,70,63,59,56,52,49,74,67,57,30.16,30.08,6,2,12,0.00
2013-7-5,75,64,59,58,53,49,76,67,54,30.09,30.00,7,2,14,0.00
2013-7-6,77,64,58,61,53,49,76,69,55,30.01,29.91,6,1,17,0.00
2013-7-7,73,63,58,59,53,50,78,71,59,30.01,29.94,3,1,12,0.00
2013-7-8,78,63,54,61,53,47,78,70,55,30.11,30.00,5,1,10,0.00
2013-7-9,81,64,50,64,55,45,84,73,55,30.13,30.06,7,1,15,0.00
2013-7-10,72,60,52,56,50,45,82,69,53,30.13,30.04,6,2,14,0.00
2013-7-11,74,62,53,55,49,44,76,64,47,30.10,30.03,7,2,17,0.00
2013-7-12,73,58,46,55,47,40,84,70,52,30.14,30.04,6,1,15,0.00
2013-7-13,79,61,43,58,49,38,85,66,46,30.21,30.11,6,1,14,0.00
2013-7-14,81,62,41,61,49,36,84,65,46,30.15,30.04,6,1,13,0.00
2013-7-15,86,67,51,59,52,44,80,62,38,30.07,29.86,5,1,12,0.00
2013-7-16,86,64,48,64,53,43,84,69,42,29.97,29.77,5,0,12,0.00
2013-7-17,70,62,52,57,53,46,83,74,62,30.21,29.96,3,0,8,0.00
2013-7-18,77,64,54,60,53,47,80,69,55,30.24,30.14,3,1,12,0.00
2013-7-19,78,62,57,61,53,47,80,73,56,30.19,30.10,6,1,14,0.00
2013-7-20,71,61,56,58,53,50,82,75,62,30.13,30.02,5,2,13,0.00
2013-7-21,70,61,56,59,54,51,82,77,66,30.03,29.97,3,1,9,0.00
2013-7-22,73,62,56,59,54,50,83,75,63,30.09,30.00,5,1,9,0.00
2013-7-23,83,63,53,66,54,47,83,74,54,30.09,29.99,6,1,6,0.00
2013-7-24,79,62,53,62,53,47,82,72,55,30.10,30.03,7,2,11,0.00
2013-7-25,82,65,50,61,53,44,81,68,48,30.14,30.08,7,2,7,0.00
2013-7-26,79,61,44,60,50,39,85,69,49,30.21,30.12,8,2,11,0.00
2013-7-27,74,62,55,56,52,47,79,70,53,30.22,30.08,12,2,12,0.00
2013-7-28,67,60,56,56,52,48,81,74,65,30.09,30.01,8,1,10,0.00
2013-7-29,74,62,55,59,53,47,81,73,58,30.06,29.98,6,1,10,0.00
2013-7-30,72,62,57,59,54,49,79,73,62,30.17,30.05,9,1,9,0.00
2013-7-31,71,62,57,58,54,51,81,75,63,30.16,30.06,6,1,7,0.00
2013-8-1,68,62,56,58,54,51,83,75,67,30.11,30.07,3,1,6,0.00
2013-8-2,69,62,56,59,55,50,84,77,70,30.14,30.10,6,0,6,0.00
2013-8-3,78,66,57,62,56,51,83,73,57,30.13,30.02,6,1,8,0.00
2013-8-4,83,66,53,65,56,47,83,72,53,30.05,29.96,5,1,8,0.00
2013-8-5,76,61,51,62,53,45,83,74,56,30.06,29.96,6,1,7,0.00
2013-8-6,81,64,53,62,53,46,82,70,51,30.04,29.95,6,1,8,0.00
2013-8-7,81,63,55,63,53,46,82,73,52,30.07,29.99,7,1,8,0.00
2013-8-8,77,64,55,63,56,49,83,75,57,30.07,29.97,8,1,9,0.00
2013-8-9,78,62,54,64,55,48,84,78,61,29.99,29.91,6,1,7,0.00
2013-8-10,71,63,58,60,55,52,84,76,66,30.06,29.95,5,1,6,0.02
2013-8-11,71,63,57,59,55,52,84,74,64,30.09,30.01,3,0,5,0.00
2013-8-12,75,65,58,58,54,50,82,70,55,30.09,30.04,8,1,9,0.00
2013-8-13,82,64,45,60,52,40,85,66,40,30.12,29.93,5,1,5,0.00
2013-8-14,77,61,49,63,53,44,84,77,61,29.96,29.92,3,0,5,0.20
2013-8-15,71,65,61,64,59,56,85,83,79,29.98,29.93,1,0,3,0.15
2013-8-16,78,68,58,67,60,52,86,75,63,30.05,29.97,7,1,9,0.00
2013-8-17,72,64,59,63,58,53,84,80,72,30.10,30.04,3,1,6,0.00
2013-8-18,76,64,53,62,56,49,86,75,59,30.14,30.07,6,1,6,0.00
2013-8-19,74,61,49,62,53,45,86,75,61,30.15,30.08,7,1,9,0.00
2013-8-20,81,63,49,61,52,44,87,69,47,30.17,30.05,10,1,10,0.00
2013-8-21,89,65,44,61,51,39,86,64,36,30.06,29.89,6,1,6,0.00
2013-8-22,80,64,48,64,54,43,85,70,51,29.91,29.86,7,1,7,0.00
2013-8-23,76,65,60,61,56,54,81,73,55,29.93,29.89,7,1,8,0.02
2013-8-24,131,64,53,100,55,48,85,74,57,29.93,29.88,7,1,9,0.00
2013-8-25,71,60,45,58,51,40,86,73,61,29.95,29.88,1,0,2,0.00
2013-8-26,78,62,53,61,54,47,84,75,54,29.94,29.86,7,0,9,0.13
2013-8-27,79,66,58,65,58,53,85,78,61,29.94,29.82,8,1,8,0.04
2013-8-28,74,66,60,66,59,55,86,79,70,29.91,29.83,5,0,5,0.16
2013-8-29,77,66,61,69,60,56,86,82,73,30.04,29.83,7,1,10,0.78
2013-8-30,76,66,54,65,58,49,87,75,55,30.14,30.03,0,0,0,0.02
2013-8-31,84,66,50,65,55,46,86,71,46,30.07,29.85,0,0,0,0.00
2013-9-1,79,66,56,62,55,49,83,71,49,29.91,29.83,0,0,4,0.00
2013-9-2,76,65,54,64,57,49,83,76,63,29.93,29.86,0,0,0,0.00
2013-9-3,77,63,52,62,54,47,85,75,57,30.01,29.92,0,0,2,0.00
2013-9-4,79,64,54,63,56,49,85,77,59,30.06,29.99,0,0,1,0.00
2013-9-5,72,64,60,63,58,53,85,81,74,30.05,29.96,0,0,0,0.42
2013-9-6,72,64,59,64,58,54,86,83,75,30.11,29.98,0,0,0,0.38
2013-9-7,80,65,51,64,57,47,87,77,59,30.11,29.97,0,0,0,0.00
2013-9-8,85,66,50,67,57,46,86,74,50,30.08,30.01,0,0,0,0.00
2013-9-9,80,66,56,66,58,50,82,75,60,30.06,29.96,0,0,0,0.00
2013-9-10,91,69,50,68,58,45,85,70,46,29.97,29.79,0,0,0,0.00
2013-9-11,79,67,57,64,58,51,84,74,59,29.98,29.79,0,0,0,0.00
2013-9-12,76,63,59,64,56,53,83,78,63,30.01,29.95,0,0,0,0.00
2013-9-13,66,62,59,59,56,54,84,81,77,30.00,29.87,0,0,0,0.00
2013-9-14,75,65,60,63,58,55,84,78,67,29.88,29.73,0,0,0,0.00
2013-9-15,68,63,60,61,57,55,85,82,78,29.86,29.74,0,0,0,0.02
2013-9-16,72,63,58,64,56,52,86,79,66,29.95,29.86,0,0,0,0.00
2013-9-17,72,60,49,60,52,44,86,76,57,29.99,29.89,0,0,0,0.00
2013-9-18,73,59,48,60,51,42,86,75,56,30.09,29.98,0,0,0,0.00
2013-9-19,83,59,43,59,48,38,86,69,40,30.03,29.78,0,0,0,0.02
2013-9-20,70,56,43,58,50,38,85,80,63,29.78,29.62,0,0,0,0.16
2013-9-21,68,57,48,60,51,44,86,82,73,29.75,29.66,0,0,0,0.45
2013-9-22,68,57,51,61,52,46,86,83,75,29.80,29.57,3,0,12,0.96
2013-9-23,68,56,46,58,50,41,86,81,68,29.98,29.79,2,0,11,0.63
2013-9-24,64,52,46,56,47,41,86,82,72,29.99,29.85,5,0,10,0.63
2013-9-25,65,53,43,54,46,39,86,79,62,30.04,29.86,2,0,6,0.18
2013-9-26,68,51,39,57,44,35,86,77,61,30.15,30.04,6,0,11,0.00
2013-9-27,59,52,43,54,48,38,86,85,82,30.15,29.87,0,0,0,1.23
2013-9-28,64,57,51,59,53,46,87,85,81,29.88,29.43,8,1,22,2.40
2013-9-29,59,54,51,54,50,46,86,85,84,29.60,29.24,9,1,23,1.36
2013-9-30,64,54,47,54,48,42,85,80,70,29.94,29.49,6,2,17,0.53
2013-10-1,60,51,46,55,45,41,86,82,68,30.16,29.93,3,0,14,0.53
2013-10-2,59,50,40,53,45,36,86,84,79,30.19,30.06,2,0,8,0.67
2013-10-3,63,49,38,53,42,33,87,79,63,30.43,30.17,3,0,7,0.00
2013-10-4,72,50,34,53,41,30,87,73,48,30.45,30.33,3,0,9,0.00
2013-10-5,77,53,36,56,41,31,85,68,33,30.35,30.09,0,0,0,0.00
2013-10-6,81,61,50,56,47,43,80,63,31,30.09,29.92,5,1,14,0.04
2013-10-7,63,55,51,55,48,46,83,78,67,30.12,29.94,3,0,13,0.46
2013-10-8,59,51,41,54,46,36,85,81,72,30.13,29.99,6,0,14,0.73
2013-10-9,65,47,34,51,40,30,86,76,55,30.12,29.98,2,0,7,0.02
2013-10-10,57,51,46,52,45,39,84,82,79,30.09,29.96,0,0,6,0.09
2013-10-11,60,51,43,52,44,37,86,78,64,30.14,30.08,2,0,6,0.00
2013-10-12,62,50,37,51,43,32,85,78,65,30.20,30.07,3,0,7,0.02
2013-10-13,67,46,33,52,38,28,85,76,54,30.33,30.19,3,0,9,0.00
2013-10-14,69,48,32,52,38,27,85,72,46,30.38,30.29,6,0,12,0.00
2013-10-15,71,52,38,51,41,32,85,69,40,30.35,30.15,3,0,8,0.00
2013-10-16,69,50,39,53,42,33,83,74,55,30.17,30.10,2,0,7,0.00
2013-10-17,70,49,35,54,41,30,85,75,54,30.21,30.14,3,0,7,0.00
2013-10-18,76,52,37,54,41,32,86,70,38,30.19,30.07,5,0,11,0.00
2013-10-19,68,48,35,54,40,30,84,75,59,30.14,30.09,3,0,6,0.00
2013-10-20,66,50,40,54,43,34,84,77,62,30.17,30.06,2,0,6,0.00
2013-10-21,78,53,35,58,43,31,85,71,45,30.09,29.97,3,0,9,0.00
2013-10-22,68,54,42,56,46,37,84,76,62,30.03,29.97,6,1,12,0.00
2013-10-23,56,51,48,50,46,43,84,83,80,30.02,29.99,1,0,5,0.00
2013-10-24,54,51,49,49,46,44,85,84,83,30.13,30.02,2,0,7,0.02
2013-10-25,62,52,40,52,46,35,85,80,67,30.28,30.12,1,0,5,0.00
2013-10-26,63,46,34,50,40,30,86,78,63,30.32,30.18,3,0,8,0.00
2013-10-27,60,50,39,52,45,34,85,81,71,30.22,29.88,3,0,16,0.11
2013-10-28,63,47,35,50,37,28,85,71,46,29.93,29.83,5,0,16,0.02
2013-10-29,62,41,29,47,32,24,84,71,47,30.05,29.92,2,0,5,0.00
2013-10-30,61,45,30,50,37,24,84,75,63,30.16,30.05,1,0,6,0.00
2013-10-31,56,52,48,51,46,42,84,82,75,30.28,30.12,1,0,5,0.20
2013-11-1,64,54,44,55,48,40,86,81,69,30.29,29.84,2,0,13,0.07
2013-11-2,57,51,43,49,44,37,85,77,62,30.01,29.64,8,2,23,0.49
2013-11-3,54,46,38,47,40,33,83,80,74,30.13,30.00,3,0,12,0.15
2013-11-4,49,45,39,45,41,33,86,85,83,30.15,30.04,3,1,8,0.18
2013-11-5,58,50,44,53,46,40,86,85,81,30.25,30.03,3,0,8,0.20
2013-11-6,57,50,45,51,46,41,86,84,77,30.27,30.04,3,1,10,0.20
2013-11-7,57,51,47,51,47,43,86,84,78,30.09,29.82,8,2,21,1.05
2013-11-8,57,48,38,52,43,34,86,84,78,30.18,30.09,2,0,5,0.18
2013-11-9,50,43,34,45,39,30,86,85,82,30.14,30.03,2,0,9,0.00
2013-11-10,59,51,46,51,45,41,84,81,73,30.06,30.01,3,1,10,0.00
2013-11-11,62,53,43,48,44,39,85,71,60,30.10,29.96,7,2,17,0.00
2013-11-12,62,54,49,53,47,42,83,77,59,30.41,30.02,6,1,13,0.15
2013-11-13,58,49,39,52,44,35,85,83,79,30.46,30.34,1,0,3,0.02
2013-11-14,54,45,39,49,41,34,86,84,82,30.33,30.10,2,0,6,0.04
2013-11-15,50,46,40,46,42,36,86,85,84,30.12,29.53,8,1,20,0.73
2013-11-16,51,46,43,45,41,38,86,83,78,29.83,29.54,9,1,19,0.22
2013-11-17,55,49,44,51,45,40,86,85,83,29.93,29.84,3,0,12,1.00
2013-11-18,54,52,49,50,48,45,87,86,84,29.93,29.60,10,1,21,0.58
2013-11-19,54,45,32,50,39,27,86,81,69,30.05,29.65,5,1,12,0.20
2013-11-20,45,32,24,36,26,19,85,77,63,30.46,30.06,2,0,8,0.02
2013-11-21,46,32,23,33,24,18,84,72,52,30.59,30.46,5,1,14,0.00
2013-11-22,52,40,28,32,25,21,76,56,43,30.57,30.38,5,2,12,0.00
2013-11-23,58,48,38,30,24,20,54,38,32,30.39,30.12,7,3,19,0.00
2013-11-24,58,44,33,35,27,23,68,53,40,30.24,30.11,7,1,13,0.00
2013-11-25,59,43,32,38,30,24,75,60,45,30.28,30.24,5,1,8,0.00
2013-11-26,57,46,34,40,34,27,75,62,46,30.26,30.06,6,1,21,0.00
2013-11-27,61,49,43,41,36,31,72,60,46,30.06,29.91,6,1,10,0.00
2013-11-28,58,42,32,43,32,25,76,67,54,30.20,29.99,2,0,9,0.00
2013-11-29,51,41,30,45,36,24,83,80,77,30.36,30.21,1,0,5,0.02
2013-11-30,51,47,43,46,42,38,84,83,82,30.37,30.15,2,0,5,0.40
2013-12-1,54,52,46,50,47,41,86,86,84,30.15,29.93,10,3,20,2.83
2013-12-2,45,39,31,41,35,27,85,84,81,30.06,29.93,5,1,15,0.26
2013-12-3,41,33,25,35,28,20,85,82,76,30.31,30.06,5,0,10,0.00
2013-12-4,38,26,20,31,21,15,85,79,70,30.33,30.28,3,0,7,0.00
2013-12-5,35,26,16,29,19,12,84,75,61,30.33,30.13,8,1,17,0.02
2013-12-6,34,28,19,25,19,12,79,71,60,30.16,30.01,8,2,17,0.00
2013-12-7,31,20,9,19,10,2,78,68,54,30.46,30.15,5,0,9,0.00
2013-12-8,30,18,8,23,12,1,79,75,72,30.59,30.45,2,0,6,0.00
2013-12-9,32,26,14,25,20,8,81,78,75,30.59,30.50,3,0,7,0.00
2013-12-10,35,33,30,30,28,25,84,83,81,30.53,30.39,3,0,7,0.02
2013-12-11,46,37,32,40,32,28,86,81,73,30.39,30.15,3,1,15,0.02
2013-12-12,40,36,31,35,31,25,85,82,78,30.17,30.05,5,1,14,0.18
2013-12-13,51,43,39,46,39,35,86,85,83,30.45,30.17,3,0,14,0.13
2013-12-14,45,42,37,41,38,33,86,85,84,30.47,30.34,3,0,8,0.02
2013-12-15,48,45,42,44,40,38,86,86,85,30.48,30.39,2,0,14,0.26
2013-12-16,48,41,33,44,37,29,87,85,84,30.50,30.22,6,1,14,0.00
2013-12-17,40,35,30,36,32,26,87,86,85,30.24,30.15,1,0,14,0.07
2013-12-18,47,38,-4,44,34,-7,87,86,85,30.18,30.07,3,0,14,0.07
2013-12-19,39,31,24,35,27,20,87,86,85,30.33,30.17,1,0,3,0.02
2013-12-20,48,37,32,45,34,28,87,86,86,30.23,29.83,7,1,21,0.71
2013-12-21,50,46,44,46,42,41,88,87,86,30.20,29.92,2,0,14,0.09
2013-12-22,53,49,45,49,45,41,88,87,86,30.34,30.20,2,0,21,0.09
2013-12-23,51,46,34,48,42,30,87,86,85,30.55,30.26,5,0,14,0.49
2013-12-24,47,36,31,43,32,27,87,85,83,30.63,30.48,2,0,14,0.00
2013-12-25,47,36,31,42,32,26,87,85,82,30.49,30.36,2,0,14,0.00
2013-12-26,49,35,28,44,31,24,87,84,82,30.38,30.18,1,0,14,0.00
2013-12-27,44,37,30,40,33,25,86,85,84,30.40,30.16,2,0,14,0.09
2013-12-28,48,41,32,44,37,27,87,85,84,30.51,30.40,1,0,14,0.02
2013-12-29,46,35,30,42,31,26,87,85,83,30.49,30.28,1,0,14,0.00
2013-12-30,47,40,33,42,36,29,86,85,84,30.30,30.15,2,0,14,0.00
2013-12-31,48,43,37,44,39,33,86,85,85,30.37,30.23,2,0,14,0.02
2014-1-1,50,44,38,46,39,34,87,85,83,30.37,30.21,6,1,14,0.00
2014-1-2,53,46,41,46,41,36,85,82,76,30.24,29.99,3,0,20,0.41